| time (UTC) | temp F | wind direction | speed MPH | gust MPH | rain 1hr in | rain 24hr in | rain mn in | humidity % | barometer mb |
| 20260504150515 | 57 | 225 | 7.0 | 15.0 | 0.00 | 0.02 | 0.02 | 51 | 1014.4 |
| 20260504140537 | 56 | 180 | 5.0 | 15.0 | 0.00 | 0.02 | 0.02 | 51 | 1014.2 |
| 20260504130517 | 54 | 248 | 2.0 | 5.0 | 0.00 | 0.02 | 0.02 | 56 | 1014.6 |
| 20260504110516 | 41 | 270 | 1.0 | 3.0 | 0.00 | 0.02 | 0.02 | 79 | 1014.6 |
| 20260504100516 | 38 | 225 | 2.0 | 5.0 | 0.00 | 0.02 | 0.02 | 88 | 1014.2 |
| 20260504081516 | 45 | 293 | 2.0 | 5.0 | 0.00 | 0.02 | 0.02 | 74 | 1014.5 |
| 20260504080516 | 45 | 225 | 2.0 | 7.0 | 0.00 | 0.02 | 0.02 | 74 | 1014.5 |
| 20260504050516 | 44 | 315 | 3.0 | 8.0 | 0.00 | 0.00 | 0.00 | 70 | 1015.0 |
| 20260504045516 | 44 | 270 | 2.0 | 5.0 | 0.00 | 0.00 | 0.00 | 66 | 1014.9 |
| 20260504044516 | 44 | 248 | 2.0 | 5.0 | 0.00 | 0.00 | 0.00 | 65 | 1014.9 |
| 20260504043516 | 45 | 270 | 2.0 | 5.0 | 0.00 | 0.00 | 0.00 | 64 | 1014.9 |
| 20260504042516 | 45 | 248 | 2.0 | 6.0 | 0.00 | 0.00 | 0.00 | 64 | 1015.0 |
| 20260504041516 | 45 | 248 | 3.0 | 9.0 | 0.00 | 0.00 | 0.00 | 64 | 1014.8 |
| 20260504040516 | 45 | 225 | 3.0 | 8.0 | 0.00 | 0.00 | 0.00 | 62 | 1014.8 |
| 20260504035516 | 44 | 225 | 3.0 | 6.0 | 0.00 | 0.00 | 0.00 | 60 | 1014.9 |
| 20260504034516 | 44 | 315 | 2.0 | 7.0 | 0.00 | 0.00 | 0.00 | 57 | 1014.6 |
| 20260504033516 | 44 | 90 | 1.0 | 3.0 | 0.00 | 0.00 | 0.00 | 54 | 1014.5 |
| 20260504032516 | 43 | 45 | 1.0 | 3.0 | 0.00 | 0.00 | 0.00 | 53 | 1014.6 |
| 20260504031516 | 43 | 45 | 1.0 | 3.0 | 0.00 | 0.00 | 0.00 | 52 | 1014.6 |
| 20260504030516 | 43 | 68 | 1.0 | 3.0 | 0.00 | 0.00 | 0.00 | 52 | 1014.7 |
| 20260504025516 | 43 | 0.0 | 1.0 | 0.00 | 0.00 | 0.00 | 51 | 1014.7 | |
| 20260504024516 | 43 | 180 | 1.0 | 4.0 | 0.00 | 0.00 | 0.00 | 50 | 1014.5 |
| 20260504023516 | 43 | 248 | 1.0 | 5.0 | 0.00 | 0.00 | 0.00 | 51 | 1014.7 |
| 20260504022516 | 43 | 248 | 2.0 | 9.0 | 0.00 | 0.00 | 0.00 | 50 | 1014.8 |
| 20260504021516 | 43 | 270 | 2.0 | 10.0 | 0.00 | 0.00 | 0.00 | 50 | 1014.6 |
| 20260504020517 | 43 | 203 | 1.0 | 3.0 | 0.00 | 0.00 | 0.00 | 50 | 1014.6 |
| 20260504015516 | 43 | 315 | 1.0 | 4.0 | 0.00 | 0.00 | 0.00 | 49 | 1014.6 |
| 20260504014516 | 43 | 45 | 1.0 | 3.0 | 0.00 | 0.00 | 0.00 | 49 | 1014.5 |
| 20260504013516 | 42 | 270 | 1.0 | 8.0 | 0.00 | 0.00 | 0.00 | 49 | 1014.2 |
| 20260504012516 | 42 | 0.0 | 2.0 | 0.00 | 0.00 | 0.00 | 49 | 1014.1 | |
| 20260504011517 | 42 | 0.0 | 2.0 | 0.00 | 0.00 | 0.00 | 49 | 1013.9 | |
| 20260504010516 | 41 | 0.0 | 2.0 | 0.00 | 0.00 | 0.00 | 47 | 1013.9 | |
| 20260504005516 | 41 | 0.0 | 1.0 | 0.00 | 0.00 | 0.00 | 48 | 1013.7 | |
| 20260504004516 | 41 | 0.0 | 1.0 | 0.00 | 0.00 | 0.00 | 51 | 1013.5 | |
| 20260504003516 | 40 | 0.0 | 1.0 | 0.00 | 0.00 | 0.00 | 56 | 1013.4 | |
| 20260504002516 | 41 | 0.0 | 2.0 | 0.00 | 0.00 | 0.00 | 53 | 1013.4 | |
| 20260504001516 | 42 | 0.0 | 1.0 | 0.00 | 0.00 | 0.00 | 51 | 1013.2 | |
| 20260504000516 | 43 | 0.0 | 0.0 | 0.00 | 0.00 | 0.00 | 48 | 1013.1 | |
| 20260503235516 | 44 | 0.0 | 1.0 | 0.00 | 0.00 | 0.00 | 47 | 1013.2 | |
| 20260503234516 | 45 | 0.0 | 2.0 | 0.00 | 0.00 | 0.00 | 45 | 1013.1 | |
| 20260503233516 | 45 | 0.0 | 2.0 | 0.00 | 0.00 | 0.00 | 45 | 1013.0 | |
| 20260503232516 | 46 | 158 | 1.0 | 2.0 | 0.00 | 0.00 | 0.00 | 46 | 1013.1 |
| 20260503231516 | 46 | 0.0 | 2.0 | 0.00 | 0.00 | 0.00 | 46 | 1012.8 | |
| 20260503230516 | 47 | 158 | 1.0 | 3.0 | 0.00 | 0.00 | 0.00 | 46 | 1012.9 |
| 20260503225516 | 47 | 0.0 | 2.0 | 0.00 | 0.00 | 0.00 | 44 | 1012.9 | |
| 20260503224536 | 48 | 0 | 1.0 | 5.0 | 0.00 | 0.00 | 0.00 | 43 | 1012.8 |
| 20260503223516 | 48 | 0.0 | 3.0 | 0.00 | 0.00 | 0.00 | 45 | 1012.8 | |
| 20260503222515 | 47 | 225 | 3.0 | 6.0 | 0.00 | 0.00 | 0.00 | 44 | 1012.8 |
| 20260503221515 | 48 | 0 | 4.0 | 11.0 | 0.00 | 0.00 | 0.00 | 43 | 1012.9 |
| 20260503220516 | 48 | 90 | 1.0 | 4.0 | 0.00 | 0.00 | 0.00 | 44 | 1012.7 |
| 20260503215516 | 47 | 180 | 2.0 | 6.0 | 0.00 | 0.00 | 0.00 | 45 | 1012.6 |
| 20260503214515 | 47 | 270 | 2.0 | 10.0 | 0.00 | 0.00 | 0.00 | 47 | 1012.6 |
| 20260503213516 | 47 | 45 | 3.0 | 8.0 | 0.00 | 0.00 | 0.00 | 46 | 1012.7 |
| 20260503212516 | 50 | 248 | 4.0 | 9.0 | 0.00 | 0.00 | 0.00 | 46 | 1012.7 |
| 20260503211516 | 49 | 225 | 4.0 | 7.0 | 0.00 | 0.00 | 0.00 | 44 | 1012.8 |
| 20260503210516 | 49 | 270 | 4.0 | 13.0 | 0.00 | 0.00 | 0.00 | 43 | 1012.7 |
| 20260503205516 | 49 | 203 | 6.0 | 13.0 | 0.00 | 0.00 | 0.00 | 44 | 1012.5 |
| 20260503204515 | 49 | 225 | 5.0 | 15.0 | 0.00 | 0.00 | 0.00 | 45 | 1012.9 |
| 20260503203515 | 50 | 203 | 4.0 | 10.0 | 0.00 | 0.00 | 0.00 | 45 | 1012.7 |
| 20260503202516 | 49 | 225 | 4.0 | 13.0 | 0.00 | 0.00 | 0.00 | 43 | 1012.7 |
| 20260503201536 | 48 | 225 | 5.0 | 13.0 | 0.00 | 0.00 | 0.00 | 46 | 1012.6 |
| 20260503200515 | 47 | 225 | 3.0 | 7.0 | 0.00 | 0.00 | 0.00 | 49 | 1012.4 |
| 20260503195516 | 45 | 293 | 4.0 | 11.0 | 0.00 | 0.00 | 0.00 | 47 | 1012.3 |
| 20260503194516 | 46 | 225 | 3.0 | 9.0 | 0.00 | 0.00 | 0.00 | 48 | 1012.5 |
| 20260503193515 | 47 | 248 | 3.0 | 16.0 | 0.00 | 0.00 | 0.00 | 48 | 1012.7 |
| 20260503192515 | 46 | 315 | 4.0 | 9.0 | 0.00 | 0.00 | 0.00 | 47 | 1012.7 |
| 20260503191536 | 46 | 315 | 4.0 | 10.0 | 0.00 | 0.00 | 0.00 | 46 | 1012.6 |
| 20260503190515 | 48 | 338 | 3.0 | 10.0 | 0.00 | 0.00 | 0.00 | 46 | 1012.7 |
| 20260503185516 | 47 | 23 | 3.0 | 7.0 | 0.00 | 0.00 | 0.00 | 50 | 1012.6 |
| 20260503184515 | 45 | 338 | 2.0 | 7.0 | 0.00 | 0.00 | 0.00 | 52 | 1012.7 |
| 20260503183555 | 44 | 90 | 3.0 | 8.0 | 0.00 | 0.00 | 0.00 | 51 | 1012.6 |
| 20260503182515 | 45 | 158 | 3.0 | 12.0 | 0.00 | 0.00 | 0.00 | 52 | 1012.7 |
| 20260503181515 | 45 | 315 | 5.0 | 16.0 | 0.00 | 0.00 | 0.00 | 49 | 1012.5 |
| 20260503180515 | 44 | 315 | 3.0 | 9.0 | 0.00 | 0.00 | 0.00 | 53 | 1012.6 |
| 20260503175515 | 44 | 293 | 3.0 | 9.0 | 0.00 | 0.00 | 0.00 | 51 | 1012.5 |
| 20260503174515 | 46 | 248 | 3.0 | 7.0 | 0.00 | 0.00 | 0.00 | 51 | 1012.4 |
| 20260503173515 | 45 | 225 | 3.0 | 8.0 | 0.00 | 0.00 | 0.00 | 51 | 1012.5 |
| 20260503172515 | 45 | 68 | 3.0 | 8.0 | 0.00 | 0.00 | 0.00 | 53 | 1012.4 |
| 20260503171535 | 47 | 45 | 2.0 | 7.0 | 0.00 | 0.00 | 0.00 | 53 | 1012.5 |
| 20260503170517 | 45 | 203 | 4.0 | 9.0 | 0.00 | 0.00 | 0.00 | 53 | 1012.6 |